Regional Weather Roundup
Issued by NWS Midland/Odessa, TX

Home | Current Version | Previous Version | Text Only | Print | Product List | Glossary On
Versions: 1 2 3 4 5 6 7 8 9 10 11 12 13 14 15 16 17 18 19 20 21 22 23 24 25 26 27 28 29 30 31 32 33 34 35 36 37 38 39 40 41 42 43 44 45 46 47 48 49 50
000
ASUS44 KMAF 290101
RWRMAF
MIDLAND AREA WEATHER ROUNDUP
NATIONAL WEATHER SERVICE MIDLAND TX
700 PM CST SUN DEC 28 2014

...IN SOUTHWEST TEXAS AND SOUTHEAST NEW MEXICO...

CITY           SKY/WX    TMP DP  RH WIND       PRES   REMARKS
ALPINE         CLEAR     42  27  54 S8        30.16R WCI  37
ANDREWS        FAIR      44  28  52 SW9       30.03S WCI  39
ARTESIA        MOCLDY    46  12  25 SW12      30.01R
BIG SPRING     PTCLDY    43  23  45 S9        30.06S WCI  38
CARLSBAD       MOCLDY    44  28  53 N5        30.01S
DRYDEN           N/A     52  32  46 S8        30.08R
FORT STOCKTON  CLEAR     46  32  58 CALM      30.06F
GUAD PASS      NOT AVBL
HOBBS          CLEAR     39  27  60 S5        30.03R WCI  36
MARFA          CLEAR     37  27  65 SW7       30.14R WCI  32
MIDLAND AIRPK  PTCLDY    49  30  49 SW8       30.05R
MIDLAND INTL   PTCLDY    47  29  49 SW10      30.04S
ODESSA         PTCLDY    45  29  53 SW9       30.05R
PECOS          CLEAR     49  31  48 SW15      30.06R
PRESIDIO       FAIR      52  31  44 N10       30.12R
SEMINOLE       PTCLDY    40  27  59 CALM      30.03S
SNYDER         CLEAR     43  26  50 S8        30.03F WCI  38
WINK           CLEAR     44  27  51 SW6       30.04R
$$
...OTHER STATIONS IN TEXAS...

CITY           SKY/WX    TMP DP  RH WIND       PRES   REMARKS
ABILENE        CLEAR     42  27  55 S9        30.06F WCI  37
AMARILLO       PTCLDY    37   9  31 SE5       29.91R WCI  33
AUSTIN         PTCLDY    36  29  75 CALM      30.17R
BROWNSVILLE    CLOUDY    49  45  86 N8        30.18R
CORPUS CHRISTI CLOUDY    46  42  86 N9        30.17S
DALLAS FTW     CLEAR     40  22  48 SE5       30.13F WCI  37
DEL RIO        CLEAR     49  31  49 SE6       30.13S
EL PASO        PTCLDY    43  24  47 SW13      30.10R WCI  36
HOUSTON INT    CLOUDY    41  39  93 N6        30.15S WCI  37
LUBBOCK        CLOUDY    45  24  43 SW13      29.96S WCI  39
SAN ANGELO     CLEAR     47  27  45 S7        30.07S
SAN ANTONIO    CLEAR     44  32  62 CALM      30.17R
WACO           CLEAR     33  27  78 CALM      30.16S
WICHITA FALLS  NOT AVBL
$$
...OTHER LOCATIONS IN NEW MEXICO...

CITY           SKY/WX    TMP DP  RH WIND       PRES   REMARKS
ALAMAGORDO     MOCLDY    39  14  35 N5        30.10S WCI  36
ALBUQUERQUE    MOCLDY    30  13  49 SE3       30.07S
CANNON AFB     MOCLDY    42   9  25 W20       29.94R WCI  34
CLOVIS         PTCLDY    41   5  22 W20       29.93R WCI  32
HOLLOMAN AFB   MOCLDY    39  16  39 CALM      30.09S
ROSWELL        MOCLDY    43  19  38 CALM      30.00R
RUIDOSO        PTCLDY    30   5  34 NW3       30.05S
SANTA FE       MOCLDY    24  11  57 N5        30.01S WCI  18
TRUTH OR CONSE MOCLDY    41  15  35 E5        30.06R WCI  38
TUCUMCARI      MOCLDY    41  14  33 W16       29.88R WCI  33
$$



USA.gov is the U.S. government's official web portal to all federal, state and local government web resources and services.